This is the latest recevied weather packets stored in our database for station/object OE-11149. If no packets are shown the sender has not sent any weather packets the latest 10 day(s).
| Time | Temp. | Humidity | Pressure | Rain* | Wind** | Luminosity | Snow |
|---|---|---|---|---|---|---|---|
| 1787873720 | 13.89° C | 92% | 854.7 hPa | 0 mm | - | 0 W/m² | - |
| 1787873119 | 15° C | 90% | 854.8 hPa | 0 mm | - | 0 W/m² | - |
| 1787872520 | 15° C | 89% | 855 hPa | 0 mm | - | 0 W/m² | - |
| 1787871919 | 15° C | 89% | 855.1 hPa | 0 mm | - | 0 W/m² | - |
| 1787870493 | 14.44° C | 88% | 855.1 hPa | 0 mm | - | 0 W/m² | - |
| 1787870120 | 14.44° C | 88% | 855.3 hPa | 0 mm | - | 0 W/m² | - |
| 1787869520 | 15° C | 87% | 855.3 hPa | 0 mm | - | 0 W/m² | - |
| 1787868693 | 15° C | 87% | 855.4 hPa | 0 mm | - | 0 W/m² | - |
| 1787868319 | 15° C | 86% | 855.3 hPa | 0 mm | - | 0 W/m² | - |
| 1787867720 | 15° C | 86% | 855.4 hPa | 0 mm | - | 0 W/m² | - |
| 1787866893 | 15.56° C | 85% | 855.4 hPa | 0 mm | - | 0 W/m² | - |
| 1787866519 | 15.56° C | 84% | 855.3 hPa | 0 mm | - | 0 W/m² | - |
| 1787865920 | 15.56° C | 84% | 855.3 hPa | 0 mm | - | 0 W/m² | - |
| 1787865093 | 15.56° C | 82% | 855.4 hPa | 0 mm | - | 0 W/m² | - |
| 1787864719 | 15.56° C | 84% | 855.5 hPa | 0 mm | - | 0 W/m² | - |
| 1787864119 | 15.56° C | 82% | 855.5 hPa | 0 mm | - | 0 W/m² | - |
| 1787863293 | 16.11° C | 81% | 855.5 hPa | 0 mm | - | 0 W/m² | - |
| 1787862920 | 16.11° C | 81% | 855.4 hPa | 0 mm | - | 0 W/m² | - |
| 1787862320 | 16.67° C | 79% | 855.4 hPa | 0 mm | - | 0 W/m² | - |
| 1787861494 | 16.67° C | 78% | 855.3 hPa | 0 mm | - | 0 W/m² | - |
| 1787861120 | 16.67° C | 78% | 855.2 hPa | 0 mm | - | 0 W/m² | - |
| 1787860520 | 16.67° C | 76% | 855.1 hPa | 0 mm | - | 0 W/m² | - |
| 1787859694 | 17.22° C | 74% | 855 hPa | 0 mm | - | 0 W/m² | - |
| 1787859320 | 17.22° C | 74% | 855 hPa | 0 mm | - | 0 W/m² | - |
| 1787858720 | 17.22° C | 73% | 855 hPa | 0 mm | - | 0 W/m² | - |
* Rain latest hour (hover to see other rain measurements)
** Current wind speed in m/s (hover to see current wind gust speed)